WetterOnline ( https://www.wetteronline.de )

Wetter aktuell Venetien

Aktuelles Wetter: Istrana (46m)

6-stündlich | Neueste Meldungen
Ortszeit Temperatur Wetter
Mi, 22.05. 20:00 19.0° C wolkig
Mi, 22.05. 14:00 22.8° C wolkig
Mi, 22.05. 8:00 15.0° C wolkig
Mi, 22.05. 2:00 14.0° C wolkig
Di, 21.05. 20:00 16.8° C bewölkt
Di, 21.05. 14:00 18.8° C bedeckt
Di, 21.05. 8:00 15.2° C bedeckt
Di, 21.05. 2:00 14.8° C leichter Regen
Ortszeit Temperatur Wetter
Mi, 22.05. 23:00 17.4° C leichter Regen
Mi, 22.05. 22:55 17° C leichter Regen
Mi, 22.05. 22:00 17.4° C wolkig
Mi, 22.05. 21:55 17° C bewölkt
Mi, 22.05. 21:00 17.4° C wolkig
Mi, 22.05. 20:55 17° C bewölkt
Mi, 22.05. 20:00 19.0° C wolkig
Mi, 22.05. 19:55 19° C bewölkt
Mi, 22.05. 19:00 20.2° C bewölkt
Ortszeit Relative Feuchte Sichtweite
Mi, 22.05. 20:00 89% 10 km
Mi, 22.05. 14:00 66% 12 km
Mi, 22.05. 8:00 90% 10 km
Mi, 22.05. 2:00 93% 10 km
Di, 21.05. 20:00 95% 10 km
Di, 21.05. 14:00 84% 10 km
Di, 21.05. 8:00 91% 6 km
Di, 21.05. 2:00 95% 5.0 km
Ortszeit Relative Feuchte Sichtweite
Mi, 22.05. 23:00 93% 10 km
Mi, 22.05. 22:55 94% >10 km
Mi, 22.05. 22:00 94% 10 km
Mi, 22.05. 21:55 94% >10 km
Mi, 22.05. 21:00 93% 9 km
Mi, 22.05. 20:55 94% 9 km
Mi, 22.05. 20:00 89% 10 km
Mi, 22.05. 19:55 88% >10 km
Mi, 22.05. 19:00 85% 12 km
Ortszeit Niederschlagsmenge Niederschlagsart
Mi, 22.05. 20:00 0.0 l/m2 in 12 Std. -
Mi, 22.05. 14:00 0.0 l/m2 in 6 Std. -
Mi, 22.05. 8:00 0.0 l/m2 in 12 Std. -
Mi, 22.05. 2:00 0.0 l/m2 in 6 Std. -
Di, 21.05. 20:00 0.0 l/m2 in 12 Std. -
Di, 21.05. 14:00 0.0 l/m2 in 6 Std. -
Di, 21.05. 8:00 1 l/m2 in 12 Std. Regen
Di, 21.05. 2:00 0.6 l/m2 in 6 Std. Regen
Ortszeit Niederschlagsmenge Niederschlagsart
Mi, 22.05. 23:00 keine Meldung -
Mi, 22.05. 22:55 keine Meldung -
Mi, 22.05. 22:00 keine Meldung -
Mi, 22.05. 21:55 keine Meldung -
Mi, 22.05. 21:00 keine Meldung -
Mi, 22.05. 20:55 keine Meldung -
Mi, 22.05. 20:00 keine Meldung -
Mi, 22.05. 19:55 keine Meldung -
Mi, 22.05. 19:00 keine Meldung -
Ortszeit Stärke Spitze Richtung
km/h Bft. km/h Grad Sektor
Mi, 22.05. 20:00 7 2 - 150° SO
Mi, 22.05. 14:00 6 1 - 170° S
Mi, 22.05. 8:00 2 1 - 10° N
Mi, 22.05. 2:00 9 2 - 50° NO
Di, 21.05. 20:00 11 2 - 70° O
Di, 21.05. 14:00 11 2 - 100° O
Di, 21.05. 8:00 - - - - -
Di, 21.05. 2:00 6 1 - 210° SW
Ortszeit Stärke Spitze Richtung
km/h Bft. km/h Grad Sektor
Mi, 22.05. 23:00 4 1 - 20° N
Mi, 22.05. 22:55 4 1 - 20° N
Mi, 22.05. 22:00 4 1 - 170° S
Mi, 22.05. 21:55 4 1 - 170° S
Mi, 22.05. 21:00 7 2 - 130° SO
Mi, 22.05. 20:55 7 2 - 130° SO
Mi, 22.05. 20:00 7 2 - 150° SO
Mi, 22.05. 19:55 7 2 - 150° SO
Mi, 22.05. 19:00 9 2 - 140° SO
Ortszeit Untergrenze Bedeckung Gattung
total tief tief mittel hoch
Mi, 22.05. 20:00 900 m 6/8 2/8 Cu Ac -
Mi, 22.05. 14:00 900 m 6/8 3/8 Cu Ac -
Mi, 22.05. 8:00 900 m 6/8 6/8 Sc - -
Mi, 22.05. 2:00 1200 m 6/8 6/8 Sc - -
Di, 21.05. 20:00 750 m 8/8 4/8 Sc Ac -
Di, 21.05. 14:00 300 m 8/8 8/8 Cu - -
Di, 21.05. 8:00 150 m 8/8 8/8 Sc - -
Di, 21.05. 2:00 240 m 8/8 8/8 Sc - -
Ortszeit Bedeckungsgrad in Achtel und Wolkenuntergrenze
Mi, 22.05. 23:00 4(750m) 6(1800m)
Mi, 22.05. 22:55 3-4(750m) 5-7(1800m)
Mi, 22.05. 22:00 4(750m) 5(1800m)
Mi, 22.05. 21:55 3-4(750m) 5-7(1800m)
Mi, 22.05. 21:00 4(750m) 5(1800m)
Mi, 22.05. 20:55 3-4(750m) 5-7(1800m)
Mi, 22.05. 20:00 2(900m) 5(1800m)
Mi, 22.05. 19:55 1-2(900m) 5-7(1800m)
Mi, 22.05. 19:00 3(900m) 6(1800m)
Ortszeit Luftdruck NN (hPa) Tendenz (hPa in 3 Std.)
Mi, 22.05. 20:00 1014 + 0,5
Mi, 22.05. 14:00 1014 0,0
Mi, 22.05. 8:00 1014 + 1,7
Mi, 22.05. 2:00 1012 0,0
Di, 21.05. 20:00 1011 + 0,6
Di, 21.05. 14:00 1010 + 1,1
Di, 21.05. 8:00 1008 + 1,0
Di, 21.05. 2:00 1007 + 0,5
Ortszeit Luftdruck NN (hPa) Tendenz (hPa in 3 Std.)
Mi, 22.05. 23:00 1015 + 1,2
Mi, 22.05. 22:55 1015 keine Meldung
Mi, 22.05. 22:00 1014 + 0,6
Mi, 22.05. 21:55 1014 keine Meldung
Mi, 22.05. 21:00 1014 + 0,5
Mi, 22.05. 20:55 1014 keine Meldung
Mi, 22.05. 20:00 1014 + 0,5
Mi, 22.05. 19:55 1013 keine Meldung
Mi, 22.05. 19:00 1014 - 0,3
Ortszeit Schneehöhe (cm)
Mi, 22.05. 20:00 -
Mi, 22.05. 14:00 -
Mi, 22.05. 8:00 0
Mi, 22.05. 2:00 -
Di, 21.05. 20:00 -
Di, 21.05. 14:00 -
Di, 21.05. 8:00 0
Di, 21.05. 2:00 -
Ortszeit Schneehöhe (cm)
Mi, 22.05. 23:00 -
Mi, 22.05. 22:55 -
Mi, 22.05. 22:00 -
Mi, 22.05. 21:55 -
Mi, 22.05. 21:00 -
Mi, 22.05. 20:55 -
Mi, 22.05. 20:00 -
Mi, 22.05. 19:55 -
Mi, 22.05. 19:00 -
Link zu dieser Seite / Seite empfehlen

Das Wetter in ...